Location: *
(33.8649°S, 62.1526°E)
Time: 13:11:55
(UTC+00:00)

CZ-4C R/B - Pass Details

Date: 17 January 2021
Orbit: 617 x 1385 km, 63.4° (Epoch: 02 March)

Event Time Altitude Azimuth Distance (km) Brightness Sun altitude
Exits shadow 23:17:53 11° 358° (N) 3,393 4.9 -18.3°
Maximum altitude 23:25:42 45° 66° (ENE) 1,709 3.9 -17.1°
Drops below altitude 10° 23:32:53 10° 135° (SE) 3,108 6.5 -15.9°
Sets 23:35:33 0° 141° (SE) 3,971 7.3 -15.5°
